Terug naar catalogus

STARLINK-35997

ActiefCommunicatieVLEO
NORAD 66843·PAYLOAD·🇺🇸 United States

Gelanceerd Dec 2, 2025 vanaf Vandenberg Space Force Base

Loading…

Volgende Passages (komende 24 uur)

TLE

VersSource: CelesTrak SupGP

Epoch: Sep 15, 2026, 02:40 UTC

1 66843C 25280Y   26258.11159722 -.00019032  00000+0 -15955-2 0  2586
2 66843  70.0008 216.7898 0003097 267.9351 356.6763 14.98326849    18

Volg STARLINK-35997 in realtime met AllMySat

Download on the App Store